Wind_Speed
29 28 26 25 26 25 25 24 22 22 24 25 27 26 23 23 23 21 19 18 19 17 14 15 15 14 14 14 15 16 17 18 18 17 16 14 12 12 13 12 11 11 11 10 9 8 8 7 8 8 8 7 6 6 5 5 5 5 6 7 8 9 10 12 13 14 16 17 17 18 19 19 20 21 21 22 23 23 24 25 25 25 25 25 25
29 27 26 25 26 27 27 26 23 24 25 26 27 26 24 24 24 22 20 19 19 17 15 15 15 15 15 15 16 17 19 19 19 17 15 15 13 12 12 12 11 11 10 10 9 8 8 8 8 9 8 7 7 6 6 6 6 6 7 8 9 10 11 13 14 15 16 17 17 18 18 19 19 20 22 22 23 24 24 25 25 25 25 25 25
29 27 26 26 26 28 29 26 24 26 27 26 27 27 26 27 27 23 20 20 19 17 15 15 16 16 17 16 17 19 20 19 19 18 16 15 13 12 12 11 11 11 11 10 9 8 8 9 8 8 7 7 7 6 6 7 7 7 8 9 10 11 13 14 15 16 17 17 17 18 18 19 19 20 21 22 23 24 24 24 24 24 25 25 25
28 28 26 26 27 30 30 26 25 27 27 28 28 27 27 29 28 23 19 18 18 17 14 14 16 18 19 19 19 20 19 19 18 17 15 13 11 12 12 11 11 11 11 11 9 9 9 9 8 7 7 7 7 7 7 7 7 8 9 10 12 13 14 15 15 15 16 16 17 17 17 18 19 20 21 22 23 23 23 23 23 24 25 25 26
28 28 27 27 29 31 29 26 25 26 27 29 27 24 26 28 27 24 19 16 16 17 17 16 17 19 19 19 18 19 18 18 17 15 13 12 12 13 12 12 11 11 11 10 10 10 9 8 8 8 8 8 8 7 7 7 8 9 10 12 13 15 15 16 15 15 15 15 16 16 15 17 18 20 21 21 21 22 22 22 23 24 24 25 26
28 28 27 28 31 32 29 26 24 25 27 27 24 22 25 26 27 25 20 16 14 15 18 18 19 20 19 18 18 17 17 15 12 12 14 14 14 14 12 12 11 11 11 10 9 9 9 9 8 8 8 8 7 7 8 9 10 11 12 13 14 15 15 15 15 15 15 15 16 16 15 16 18 19 20 20 21 21 21 22 23 23 24 25 25
29 29 28 29 32 32 28 26 23 23 25 24 21 23 25 25 26 22 15 14 15 15 17 17 17 17 17 18 18 15 14 12 8 9 13 14 13 13 12 12 12 11 11 10 10 10 9 9 8 8 8 7 8 8 9 10 11 12 13 14 14 14 15 15 15 15 15 15 16 16 16 17 18 19 19 20 20 21 22 22 23 24 24 25 25
30 29 28 29 31 31 28 25 23 22 23 21 19 22 24 23 24 19 13 13 14 15 16 16 14 14 15 17 16 14 14 12 9 10 12 12 11 11 12 13 12 12 11 10 10 10 10 9 9 8 8 8 8 9 10 12 12 13 13 13 13 13 14 14 14 14 14 15 15 16 16 17 18 18 19 20 21 21 22 22 23 24 24 25 25
31 29 28 28 29 30 28 26 25 23 22 19 17 21 23 21 21 20 16 14 13 14 16 14 13 13 15 15 14 13 13 12 11 11 12 12 11 12 13 13 13 12 11 10 11 10 10 10 9 9 8 9 9 10 12 13 13 13 13 12 12 12 12 12 12 13 13 14 14 15 16 16 17 18 19 20 21 22 22 23 23 24 24 25 26
31 30 28 27 29 30 30 28 26 23 22 19 17 20 21 21 21 20 17 14 12 13 13 13 13 14 14 13 13 13 13 13 12 12 13 13 12 12 13 14 14 12 11 10 11 11 10 10 10 9 9 10 11 12 13 13 13 12 12 11 11 11 11 11 11 11 12 13 14 15 15 16 17 18 19 20 20 21 22 23 24 25 25 26 27
31 30 29 28 29 30 30 29 26 23 22 20 18 20 21 21 20 20 19 15 13 12 12 13 14 14 14 14 14 13 13 14 14 14 14 13 12 12 13 14 14 13 12 11 11 11 11 11 11 11 11 11 12 13 14 13 12 11 10 10 9 9 9 10 10 11 12 13 14 14 15 16 17 18 18 19 19 20 21 22 23 24 25 25 25
32 31 30 29 29 30 29 28 26 25 23 21 21 22 22 21 20 20 19 16 14 13 13 14 15 15 16 15 15 14 14 16 17 16 15 13 12 13 14 15 15 14 13 12 11 12 12 12 12 12 12 13 13 14 14 12 11 9 9 8 8 8 9 9 10 11 12 13 13 14 15 16 16 17 17 18 19 19 20 21 22 23 23 23 23
34 33 32 30 29 28 27 26 25 26 24 22 23 24 23 21 19 20 19 17 15 14 14 15 15 16 17 16 15 15 16 18 18 16 14 13 13 14 15 15 15 15 15 14 13 12 13 13 13 13 13 13 13 14 13 11 9 8 8 8 8 8 9 10 11 11 12 12 13 14 15 15 16 16 17 17 18 18 19 20 21 21 21 21 21
35 36 34 31 28 27 26 26 25 26 25 24 25 25 24 22 20 20 19 17 15 15 16 16 16 17 18 16 16 17 18 19 18 16 14 14 14 14 15 15 15 16 16 15 14 13 14 13 13 13 13 13 14 13 11 9 8 8 8 8 8 8 9 10 11 11 12 12 13 14 15 15 16 16 16 17 17 17 17 18 19 19 18 18 18
35 36 35 31 28 28 28 27 26 27 26 25 26 26 25 23 21 21 19 17 17 17 18 17 17 18 18 17 19 20 20 20 18 15 14 14 14 14 15 15 16 16 16 16 15 15 14 14 13 13 13 14 13 12 10 9 8 8 8 8 8 9 10 10 11 11 12 12 13 14 15 15 15 16 16 16 15 16 16 16 17 17 17 16 16
36 36 34 31 30 30 29 27 26 27 27 26 26 28 26 24 22 21 19 17 17 17 18 19 19 19 20 20 21 21 21 19 16 15 14 13 13 14 15 15 15 15 16 16 15 15 14 13 13 14 14 13 12 11 10 9 9 8 8 8 8 9 10 10 10 11 12 13 13 14 15 15 15 15 15 15 15 15 15 15 15 14 15 15 14
37 35 33 31 30 29 28 27 25 27 27 26 27 28 27 25 23 21 20 18 15 16 18 19 21 22 21 21 21 21 19 18 16 15 13 13 14 14 14 14 14 14 14 14 14 13 13 13 13 13 13 12 11 11 10 9 9 8 8 8 9 9 10 10 10 11 12 12 13 14 14 14 15 15 14 14 14 15 14 13 13 12 13 13 13
34 32 31 31 30 29 28 26 24 25 27 27 28 29 28 26 23 22 21 18 15 17 20 20 22 23 22 21 21 20 19 17 16 14 13 13 13 13 13 12 12 12 13 13 13 12 12 12 12 12 12 12 11 11 10 10 9 9 8 9 9 10 10 10 10 11 11 12 13 14 14 14 14 14 14 14 14 14 13 12 12 12 12 13 14
31 31 31 32 31 30 29 26 23 25 27 27 28 29 30 27 24 23 21 18 16 19 21 21 23 24 23 22 21 20 19 17 15 14 13 13 13 12 12 12 12 12 12 12 11 10 10 11 11 12 12 12 11 11 10 10 10 9 9 9 10 10 10 10 10 11 11 12 13 13 14 14 14 13 13 13 13 12 12 12 11 11 12 13 15
31 32 32 32 31 31 31 28 24 25 27 28 29 31 31 28 26 24 21 19 19 19 21 22 23 24 22 21 20 19 18 17 15 14 13 13 12 12 12 12 12 11 10 10 9 9 9 10 11 12 12 12 11 11 11 11 10 10 10 10 11 10 10 9 9 10 11 12 12 13 14 14 13 13 13 13 12 12 11 11 11 12 13 14 16
31 32 31 31 31 32 32 28 25 25 27 28 29 31 31 29 27 24 22 21 21 21 23 22 22 22 22 21 20 19 18 16 15 14 14 14 13 12 12 11 10 9 9 8 8 9 10 10 11 11 11 11 11 11 12 11 11 11 11 11 11 10 9 9 9 10 10 11 12 13 13 13 13 13 12 12 12 11 11 11 12 13 14 15 16
30 30 30 29 31 32 31 29 27 26 27 28 29 31 32 30 28 25 24 23 22 23 23 22 22 22 22 22 21 20 18 16 15 16 15 15 13 12 11 10 9 8 8 8 8 9 10 11 11 11 11 11 12 12 12 12 12 12 12 12 11 10 9 9 9 10 10 11 12 13 13 12 12 12 12 12 12 12 12 12 13 14 16 17 17
28 29 29 28 31 31 28 27 27 26 27 27 28 31 32 30 28 26 25 24 23 23 22 21 22 23 23 23 22 21 18 16 16 17 17 16 14 12 11 10 9 8 8 9 9 10 11 11 11 11 12 12 13 13 13 13 13 13 12 12 11 10 9 9 9 10 10 11 11 12 12 11 11 11 11 11 12 12 13 14 15 16 17 18 18
28 29 29 29 31 29 26 26 26 26 27 26 27 30 32 30 28 27 26 25 24 23 22 22 23 23 24 24 23 21 19 17 18 19 19 17 15 13 12 11 10 9 10 10 11 11 11 12 12 12 13 13 14 14 14 15 14 13 13 12 10 10 9 9 9 10 10 10 11 11 10 10 10 10 11 11 11 13 14 15 16 17 18 19 19
29 30 30 31 30 27 25 24 24 25 26 26 27 30 31 30 29 28 27 26 25 24 22 22 22 23 23 23 23 22 20 19 19 20 20 18 15 14 13 12 11 11 12 12 12 13 13 13 13 14 14 15 15 16 16 15 14 13 13 11 10 10 10 10 9 9 10 10 10 10 9 9 10 10 10 11 12 13 14 15 17 17 18 19 19
30 31 31 30 28 25 23 22 23 24 25 26 28 30 30 29 29 29 28 27 26 24 23 22 23 23 23 23 23 22 21 20 20 21 21 19 17 16 15 14 14 14 14 14 14 14 14 14 15 15 16 16 17 17 17 15 14 13 12 11 10 11 10 10 9 9 9 9 9 9 9 9 9 9 10 11 12 13 14 15 16 17 17 18 19
30 31 30 28 26 24 22 21 22 23 25 27 29 30 29 30 30 30 30 29 27 25 24 23 23 23 23 23 23 22 22 21 21 22 21 20 18 18 17 17 16 16 15 16 16 15 15 16 16 17 17 18 18 18 17 15 14 13 12 11 10 10 10 10 10 9 9 9 9 8 9 9 9 9 10 11 12 13 14 15 15 16 17 18 20
30 30 28 27 25 23 21 20 21 23 25 28 30 30 30 30 31 31 31 30 28 26 24 24 24 24 24 23 23 22 22 22 22 22 22 21 20 20 19 19 18 17 16 17 17 17 17 17 17 18 18 19 18 18 17 16 14 13 12 11 11 10 11 10 10 9 8 8 8 8 8 8 9 9 10 11 12 13 13 14 15 16 17 18 20
28 28 27 26 24 22 20 20 21 23 26 29 31 31 31 31 32 33 32 31 28 26 25 25 25 25 24 23 23 23 23 23 23 23 23 22 22 22 21 21 19 18 18 18 18 18 18 18 18 19 19 19 19 18 17 16 14 13 12 11 11 10 11 11 10 9 8 8 7 7 7 7 8 9 10 11 11 12 13 14 15 16 17 19 21
27 27 26 24 23 21 19 19 21 24 26 29 30 30 31 32 33 34 33 31 29 27 26 26 26 26 25 24 24 24 24 24 24 24 24 24 24 24 23 22 21 19 19 19 19 19 19 19 19 19 19 19 19 18 17 16 14 13 12 12 11 11 11 11 10 9 8 8 7 7 6 7 8 9 9 10 11 12 12 14 15 16 18 20 22
26 25 23 22 22 22 20 20 22 24 26 28 30 30 30 32 34 34 33 31 30 28 27 26 26 26 26 25 25 25 25 26 26 26 26 26 25 25 24 23 21 20 20 20 20 20 20 20 20 20 20 20 19 18 17 16 15 14 13 12 11 11 11 11 10 10 8 8 7 7 6 7 8 9 9 10 11 12 13 14 15 17 18 20 21
26 24 21 20 21 20 20 21 23 25 27 28 30 30 31 32 34 34 33 32 31 29 28 27 27 27 27 27 26 26 26 27 26 26 27 27 27 26 25 23 22 21 20 20 20 20 20 20 20 20 20 20 19 19 18 16 15 14 13 13 12 11 11 11 10 10 8 8 7 7 7 7 8 9 10 11 11 13 14 16 17 18 19 21 22
21 20 19 19 19 17 18 21 24 26 27 28 29 29 30 31 33 33 33 32 30 29 29 28 27 27 28 28 27 27 27 28 27 27 28 28 27 25 24 23 22 21 20 19 19 19 19 20 21 21 21 20 20 19 18 16 15 15 14 13 13 12 11 11 11 10 8 7 7 6 7 8 8 9 10 11 12 13 15 17 18 19 19 21 22
15 17 18 16 15 15 16 20 23 25 27 27 27 28 29 30 32 33 32 32 31 30 29 28 28 28 29 29 29 28 28 28 28 28 28 27 26 25 24 23 21 20 20 20 20 19 19 20 21 21 21 20 20 20 19 17 16 16 15 14 13 12 12 12 11 9 8 7 7 7 7 7 8 9 9 10 12 14 15 17 18 19 20 21 22
13 15 16 14 14 14 16 19 23 26 27 28 28 29 29 30 32 32 33 33 32 31 29 29 28 29 30 30 30 29 29 29 29 28 28 26 25 24 23 22 21 21 21 21 20 19 19 20 21 21 21 21 21 21 20 18 17 16 16 14 13 13 12 11 10 9 7 7 7 7 7 7 8 8 9 10 12 13 15 16 17 18 19 21 22
13 14 14 13 13 13 15 19 23 26 27 28 28 28 29 30 30 31 32 32 31 30 29 29 29 30 31 31 32 31 31 31 30 29 28 26 25 25 25 24 23 23 23 22 20 18 18 19 21 22 22 22 22 22 21 19 18 17 16 15 14 13 12 11 10 8 8 7 7 7 7 7 7 7 8 10 11 13 15 15 16 17 18 20 22
16 16 15 14 14 14 16 19 22 24 25 26 27 28 29 29 30 31 31 31 31 30 29 29 30 31 31 32 33 33 32 31 30 29 28 26 25 26 26 26 25 25 25 23 20 18 19 21 23 23 22 22 23 22 21 20 19 18 17 16 15 13 11 10 9 9 8 8 8 8 8 7 7 7 8 9 11 13 14 15 16 17 18 20 21
20 18 17 18 17 16 16 19 21 22 24 25 26 27 28 29 29 30 30 30 29 29 29 30 30 31 31 32 32 32 32 31 30 29 28 27 27 27 27 27 26 26 27 24 20 19 21 23 23 23 23 23 23 23 23 21 20 18 18 16 15 13 11 10 9 9 9 8 8 8 8 8 7 7 8 9 10 12 13 14 15 16 18 19 21
21 19 18 17 15 14 16 19 22 23 23 23 25 26 27 27 27 28 28 28 28 28 28 28 29 30 30 28 27 29 30 29 28 29 29 29 29 28 28 28 28 28 27 24 20 19 21 22 22 23 23 23 24 24 23 21 19 18 17 16 14 13 11 10 10 10 9 9 9 9 9 8 8 7 8 9 10 12 13 14 15 16 18 19 21
22 20 18 15 14 14 16 18 20 21 21 22 23 24 24 24 24 24 25 26 26 26 26 27 28 29 30 29 29 30 29 26 27 28 28 28 27 26 25 25 27 27 24 21 19 19 20 21 22 23 23 24 24 23 22 21 19 18 17 16 15 13 12 12 12 11 11 10 10 10 9 9 8 8 8 9 11 12 13 14 15 16 18 20 21
19 18 16 14 13 14 15 16 18 19 19 19 19 19 19 20 20 21 22 24 24 24 25 26 27 28 28 30 32 31 29 27 28 29 29 28 27 24 23 24 26 25 22 19 18 18 20 22 23 23 23 24 24 24 22 21 19 18 18 18 16 14 13 13 13 12 12 11 10 10 10 9 8 8 9 10 11 13 13 14 16 17 19 20 22
17 15 12 11 13 14 16 17 18 17 17 16 16 16 16 17 17 18 20 21 22 23 24 24 24 25 25 25 27 29 30 30 30 30 30 29 26 24 25 25 25 23 21 19 17 19 21 22 23 24 24 24 25 25 23 21 20 20 20 19 17 16 14 14 13 13 12 11 11 11 10 9 9 9 9 10 12 13 14 15 16 18 19 20 22
18 15 13 13 14 16 18 18 17 17 17 17 17 16 16 16 17 18 20 21 22 22 23 24 25 26 25 23 25 29 31 30 30 30 29 28 27 26 27 26 24 22 21 18 18 19 22 22 23 24 24 24 25 25 23 22 21 21 21 20 18 16 15 14 14 13 13 13 12 11 10 10 10 10 10 11 12 13 14 16 17 18 19 21 22
18 14 13 16 18 18 18 17 17 16 16 17 17 16 16 16 18 20 21 22 21 22 24 27 29 29 27 24 25 30 32 32 32 31 30 29 28 27 27 26 24 22 20 19 19 20 22 22 23 24 24 25 25 25 24 22 21 21 21 21 19 17 16 16 15 15 14 14 13 12 11 10 10 10 11 11 13 14 15 16 17 18 19 20 22
19 15 14 16 19 19 18 18 17 17 17 17 17 16 16 17 18 19 20 20 21 21 23 27 30 29 26 23 23 28 30 31 32 31 31 30 28 26 26 25 23 21 20 20 21 22 22 23 23 24 24 25 25 25 24 23 22 21 21 22 20 18 17 17 16 16 15 14 13 12 11 10 10 11 11 12 13 14 15 16 17 18 19 20 21
21 18 16 17 19 19 19 18 18 18 17 17 17 17 17 17 18 18 18 18 19 20 20 22 24 25 24 22 21 24 26 28 28 28 29 28 27 26 24 23 21 21 20 21 22 22 23 24 24 24 25 26 26 26 25 23 22 22 22 22 21 20 18 18 17 16 15 14 14 13 12 11 11 12 12 12 13 14 15 16 17 18 19 20 21
23 21 19 19 20 20 19 18 18 18 18 18 18 18 17 17 17 17 17 18 18 19 19 20 22 24 24 22 23 25 27 27 27 27 26 26 26 25 23 21 22 22 22 23 23 23 23 24 25 25 25 26 26 26 25 24 23 23 23 23 22 21 20 19 18 17 16 15 14 14 13 12 12 12 12 12 13 14 15 17 18 19 19 20 21
23 22 21 21 21 21 20 19 19 19 20 19 18 18 17 17 17 17 18 18 19 19 20 21 22 23 23 24 27 29 29 29 29 28 26 25 26 26 24 23 25 26 25 25 24 23 23 24 24 24 25 26 26 25 24 23 23 23 24 24 24 22 21 20 19 18 17 16 15 15 14 14 13 13 13 13 13 14 15 17 18 19 20 21 22
24 24 24 23 22 22 21 20 20 21 22 21 20 19 19 19 19 19 19 20 20 20 21 21 23 23 24 26 28 29 29 29 29 29 28 26 26 26 25 23 24 24 24 24 24 24 25 25 25 25 25 25 25 24 23 23 23 25 26 26 25 23 22 22 21 19 18 17 17 16 15 14 14 14 14 13 14 15 16 17 18 19 20 21 22
22 23 23 23 23 23 23 22 22 23 23 23 23 21 21 22 22 21 20 21 21 22 22 22 22 23 24 26 27 28 29 30 30 30 30 27 25 26 26 25 24 24 24 25 25 26 27 28 28 27 26 25 24 24 24 25 27 28 28 27 26 25 24 23 22 20 19 18 18 17 16 15 14 14 14 14 14 15 16 18 19 20 21 21 22
20 21 21 22 24 25 25 26 26 26 26 26 25 24 24 25 24 22 22 22 22 23 23 22 23 24 24 25 26 27 29 30 30 30 29 26 24 25 26 26 26 27 28 28 28 28 29 29 29 28 27 27 27 27 29 29 29 29 28 27 27 27 26 24 23 21 20 19 19 18 17 16 15 15 14 14 15 15 16 18 18 19 21 22 22
Wind_Direction
216 217 220 222 223 227 232 232 233 234 233 236 238 241 241 243 245 243 243 242 238 231 224 235 242 239 239 236 235 237 237 237 235 231 225 219 214 211 216 222 220 218 215 215 215 215 221 228 229 227 224 223 227 234 246 257 267 277 284 289 294 298 301 302 304 307 308 310 312 313 315 315 315 314 315 316 317 318 319 319 319 318 319 319 320
213 216 220 222 225 229 232 230 232 236 237 238 240 242 240 241 246 245 242 241 237 232 225 230 236 237 237 236 235 235 235 237 238 233 221 212 208 209 216 217 217 217 214 213 214 215 224 231 227 224 224 225 228 237 249 258 267 277 285 290 295 299 301 303 304 306 307 308 311 313 314 314 314 315 316 318 319 320 319 319 318 319 320 321 322
211 218 222 222 227 230 230 227 231 236 238 239 240 242 242 244 247 243 239 239 235 230 229 232 235 238 238 237 237 236 235 237 240 234 220 210 202 206 214 212 214 216 214 215 216 221 230 232 227 223 223 225 231 242 250 262 273 280 287 292 296 299 301 303 305 306 309 310 312 314 313 313 315 316 318 320 319 319 318 317 318 319 321 322 323
214 219 222 224 228 228 226 224 230 237 239 240 241 243 245 246 247 245 239 236 233 228 228 234 237 237 235 234 236 238 236 236 238 231 219 208 198 208 216 211 208 209 210 215 217 224 231 231 229 226 225 227 233 244 254 265 275 281 288 294 298 301 302 304 305 307 310 313 316 318 317 316 317 319 319 318 317 316 316 317 319 320 321 323 324
217 220 223 227 226 224 222 223 230 237 241 243 244 248 249 248 248 247 243 231 222 220 221 228 230 228 230 233 235 234 233 232 232 229 223 214 206 211 215 209 205 205 207 213 218 224 227 225 224 223 223 228 235 244 253 262 272 280 289 296 300 302 303 304 306 308 311 313 316 319 319 317 317 319 317 315 315 315 317 318 319 321 322 324 325
218 221 224 225 223 220 219 223 229 235 242 245 247 250 249 250 248 244 240 227 214 216 221 222 222 224 228 232 231 227 229 229 219 216 219 216 213 210 208 207 206 206 209 215 221 221 220 217 216 218 220 226 234 243 254 265 276 284 291 297 300 302 303 305 308 311 312 313 315 317 317 316 315 315 314 315 316 316 318 319 320 322 323 325 326
219 220 221 220 218 218 219 223 227 232 240 243 246 249 248 252 252 246 233 215 212 219 221 220 221 224 228 232 234 233 237 238 220 208 211 212 214 207 203 207 207 210 215 219 221 216 213 213 212 215 219 227 240 253 266 276 282 288 293 297 299 301 304 307 309 310 312 313 315 316 315 313 312 313 314 315 316 318 320 321 322 323 325 327 327
218 218 218 218 217 218 220 224 227 230 236 239 243 249 249 251 255 253 235 219 220 218 215 218 224 227 229 233 239 242 241 238 223 210 210 214 213 205 204 208 209 214 219 222 220 215 212 212 213 218 227 240 255 270 279 283 287 291 295 298 300 302 303 305 306 308 311 313 314 313 312 311 311 312 314 316 319 321 321 322 323 325 326 327 328
215 216 217 217 216 218 222 225 228 230 234 236 239 250 253 251 254 253 243 234 225 212 212 221 228 230 232 234 237 241 241 234 219 211 215 216 210 205 206 208 212 217 221 223 220 217 217 217 221 230 241 256 268 279 284 286 290 294 298 300 300 299 299 300 302 306 309 310 310 309 309 310 312 314 317 320 322 322 323 324 325 325 325 327 329
213 214 216 218 218 220 223 225 228 231 233 233 234 246 253 253 254 252 246 241 224 214 220 228 232 232 231 231 232 235 237 231 221 216 216 215 210 209 209 210 215 218 222 225 222 223 225 227 234 244 255 267 276 284 287 289 293 297 299 297 295 293 293 298 302 305 306 306 307 308 310 312 315 318 321 322 322 323 324 324 325 326 328 329 330
215 215 217 220 222 223 226 228 230 232 233 232 232 240 248 251 254 251 247 243 229 224 231 233 234 231 225 228 231 232 230 221 217 217 217 216 214 214 214 215 217 219 224 227 227 231 233 237 245 253 264 274 281 286 288 291 294 295 294 290 290 292 296 301 304 305 305 306 307 310 313 316 319 320 320 321 323 323 323 323 325 327 329 329 330
217 218 220 222 225 227 229 231 233 235 234 230 230 235 242 246 251 249 244 240 234 233 234 233 235 231 227 229 231 229 221 213 214 217 218 219 219 218 219 221 222 225 228 230 233 236 239 245 252 261 271 278 284 288 288 289 291 290 289 290 293 297 300 303 304 305 307 308 311 315 317 320 320 320 321 322 323 323 323 324 326 327 328 329 331
219 222 225 225 228 232 234 236 237 239 237 231 230 234 238 241 245 246 242 237 238 239 236 235 235 232 228 224 223 222 215 212 215 218 218 221 222 221 222 225 229 230 231 234 237 241 246 253 260 268 275 280 284 285 284 284 287 288 290 293 295 298 301 304 306 308 310 313 316 319 320 321 321 322 323 323 323 324 325 326 326 327 329 331 333
222 226 229 230 234 238 239 239 239 240 239 233 231 235 237 238 238 240 240 239 243 243 239 237 235 230 226 219 215 216 213 214 216 216 221 224 223 222 224 229 235 236 235 237 241 249 255 261 266 271 276 280 281 279 278 282 286 287 288 290 293 298 302 306 309 311 314 318 320 321 322 323 323 324 323 323 324 325 326 326 326 326 328 331 334
224 229 234 236 240 242 241 240 238 238 238 234 233 236 236 235 233 234 240 245 248 247 240 236 229 223 221 217 214 214 214 216 216 218 223 224 222 223 226 232 238 239 238 239 246 255 261 264 267 272 276 276 275 274 277 281 280 279 281 286 292 299 303 306 309 313 317 319 321 322 323 324 324 323 323 324 325 327 327 327 327 328 329 332 336
229 233 238 240 242 243 242 242 239 236 235 233 235 238 237 234 231 231 237 243 246 243 233 228 222 217 217 217 216 217 218 218 218 222 225 223 225 228 232 237 240 239 239 242 250 256 259 262 266 271 272 270 270 272 275 273 271 272 277 285 294 299 302 305 309 314 317 319 321 322 324 324 323 322 323 325 327 328 328 329 331 331 329 331 337
232 235 238 241 241 241 241 242 240 235 233 233 236 240 238 234 231 229 232 237 235 225 219 219 217 216 218 218 218 219 219 220 221 224 225 225 231 237 240 242 241 240 241 244 249 252 256 262 267 267 266 266 269 270 268 265 265 270 276 285 293 296 300 304 309 312 315 318 321 323 323 322 322 323 325 328 329 329 330 332 332 329 328 331 336
232 234 237 239 238 238 239 242 239 233 232 233 236 239 239 235 230 228 231 232 222 212 214 218 217 218 219 217 218 219 219 221 222 222 225 230 237 242 244 244 241 240 239 241 245 251 258 264 266 265 264 267 268 264 261 260 263 269 275 284 289 293 297 301 305 310 314 318 322 323 322 321 322 324 326 328 329 331 333 333 331 330 332 336 337
232 234 236 238 237 237 240 243 237 228 228 231 233 238 239 235 229 227 227 226 217 211 214 218 217 218 217 215 216 216 218 220 220 222 228 234 238 241 242 241 238 236 236 240 247 254 262 266 266 266 266 265 262 258 258 259 263 268 274 282 287 290 293 297 304 311 315 320 322 321 320 321 323 325 327 329 330 333 334 332 332 335 338 340 341
235 237 238 238 238 238 241 243 233 224 226 229 233 238 239 235 230 225 222 221 218 212 213 217 218 217 216 215 215 215 218 219 219 225 231 233 235 237 237 234 232 234 237 242 251 258 264 267 267 267 264 260 257 256 258 259 263 269 276 282 285 285 290 297 305 311 316 319 320 320 320 321 324 327 328 329 331 334 335 333 335 338 341 342 343
237 238 238 236 237 239 240 239 227 219 223 227 231 237 237 234 230 223 218 218 217 213 213 216 217 217 217 216 216 216 218 219 221 226 228 228 230 230 229 229 229 234 239 247 257 262 265 267 267 266 261 258 257 257 258 260 264 271 277 281 281 283 290 298 304 310 316 318 319 319 320 321 325 327 328 329 332 335 335 336 338 340 342 343 344
237 235 234 233 236 240 239 233 222 217 220 224 229 233 235 234 228 221 216 215 215 213 213 214 215 217 218 216 215 216 217 219 221 224 224 224 224 224 226 229 232 239 245 254 262 265 267 268 267 266 262 260 260 258 260 263 267 273 276 278 280 283 289 296 303 310 315 316 318 319 319 323 326 326 327 330 333 336 337 339 341 341 342 342 343
233 231 232 234 237 237 234 227 221 218 219 223 226 229 233 233 226 220 216 213 215 214 211 212 213 215 217 215 214 215 216 218 222 223 222 220 221 225 230 233 238 246 254 261 266 268 270 271 270 268 265 263 261 261 263 265 269 273 275 277 279 283 288 295 302 309 313 317 318 318 320 324 324 325 328 332 336 337 338 340 341 341 342 342 343
230 228 229 231 233 233 229 226 224 221 218 221 224 226 230 229 222 219 215 213 217 216 212 213 213 213 216 216 215 215 216 219 224 224 221 221 225 230 233 237 245 255 263 268 271 272 275 275 273 270 266 264 263 262 264 266 269 271 273 275 278 281 286 293 301 308 312 315 315 316 320 321 322 324 329 334 338 338 338 339 341 341 341 341 343
227 224 223 225 229 232 232 229 228 225 219 217 220 224 227 224 219 216 215 214 218 219 216 216 216 215 217 218 217 217 218 222 226 225 223 224 230 234 236 241 251 261 267 273 275 276 277 277 275 271 267 264 262 262 263 265 268 270 272 274 276 279 285 292 299 305 309 312 312 314 318 318 320 326 331 336 337 338 338 339 340 341 340 341 343
223 218 219 222 228 232 233 231 229 226 220 215 217 222 223 219 215 214 214 216 218 219 219 219 218 217 218 220 221 220 221 225 229 228 226 228 233 237 238 245 255 262 268 274 276 276 276 274 272 269 265 263 261 261 262 264 267 269 270 272 274 278 285 290 296 300 305 308 308 312 315 317 321 327 332 336 336 337 338 338 340 340 339 341 342
218 214 217 222 227 230 230 229 228 224 219 213 214 219 218 215 213 212 213 216 218 219 220 219 218 218 220 222 224 224 225 228 231 230 228 231 235 237 241 249 256 261 267 273 275 275 274 271 269 265 262 261 260 260 262 263 266 268 268 270 272 277 283 287 291 296 300 303 304 309 313 316 322 328 331 334 334 336 337 338 337 337 338 340 341
214 212 217 223 225 227 227 226 225 222 216 211 211 214 213 211 212 212 213 215 217 219 220 219 218 219 222 225 226 226 227 229 232 232 231 233 236 238 244 250 255 260 266 272 273 273 272 269 266 263 261 260 259 260 262 263 264 265 266 268 271 276 280 283 288 292 295 296 298 304 311 316 321 325 328 330 333 335 336 336 335 334 338 340 340
212 213 219 223 223 224 225 225 225 223 218 212 211 211 210 210 211 212 213 216 218 219 220 219 219 220 223 227 228 229 230 231 234 234 235 236 237 239 245 250 254 260 266 270 272 272 270 267 265 262 260 259 258 259 261 261 262 263 263 266 269 272 276 279 284 287 287 288 292 298 308 314 317 320 323 327 331 333 334 333 333 334 337 340 341
211 214 218 222 223 224 225 224 224 224 221 216 213 211 210 211 211 211 213 216 218 219 220 220 219 220 224 227 229 231 232 233 236 237 237 238 238 241 246 250 254 261 266 269 270 270 268 267 265 262 260 259 258 258 259 259 260 260 260 263 266 269 272 275 278 279 279 281 286 294 304 309 312 313 318 324 327 330 330 330 332 334 337 340 343
211 215 216 217 218 221 224 223 223 224 222 219 215 213 211 211 210 210 212 215 218 220 221 220 220 220 223 227 230 232 233 235 237 238 239 239 239 242 247 250 255 261 266 269 269 269 268 266 264 262 260 258 258 257 257 257 257 256 257 259 262 264 268 271 272 273 273 275 282 292 299 303 307 310 315 322 325 328 329 329 331 335 338 342 344
214 214 211 210 213 219 224 224 223 222 222 219 215 213 211 210 209 210 213 216 219 221 222 222 222 222 224 228 232 234 236 237 238 240 241 241 241 245 251 254 258 262 266 268 269 269 269 267 264 262 259 258 257 257 256 255 253 252 253 254 257 260 262 265 266 266 267 269 277 289 296 301 305 310 317 323 326 329 331 331 334 337 341 344 346
214 211 210 211 214 222 227 226 223 222 221 219 215 213 212 210 210 212 215 218 221 223 224 225 224 223 225 229 232 235 238 239 239 240 241 241 245 251 256 258 260 263 266 268 271 272 271 269 265 262 259 257 257 256 254 253 250 248 249 250 253 255 256 259 260 259 261 265 275 285 293 301 306 311 318 324 329 332 333 334 336 339 343 346 348
206 206 209 212 214 219 222 223 222 220 219 217 214 212 212 211 212 213 216 219 222 224 226 226 226 227 227 230 233 236 239 240 240 241 242 244 248 253 257 260 262 264 266 269 273 276 275 271 266 262 260 258 256 255 252 250 247 245 244 245 248 250 251 253 254 254 256 262 272 282 289 297 303 309 316 324 330 333 334 336 338 340 344 346 348
212 212 215 218 221 224 222 220 219 217 216 214 211 210 210 211 213 214 216 220 223 225 227 228 229 230 230 232 234 236 239 241 242 244 244 244 247 251 255 260 262 263 266 272 275 276 276 274 268 263 260 258 256 253 250 247 244 242 243 244 244 244 246 248 248 248 251 256 265 274 282 290 296 304 314 322 330 333 334 337 339 342 345 346 347
219 219 220 223 229 229 224 221 220 218 216 214 211 209 209 210 212 214 217 222 224 226 229 230 232 233 234 235 236 237 240 242 243 245 246 245 247 250 254 258 260 263 269 274 273 272 276 277 270 263 259 257 254 251 249 246 243 242 244 244 242 239 237 240 241 241 243 248 258 267 274 281 289 299 311 321 328 332 333 336 339 342 344 344 346
204 207 211 219 224 221 218 219 221 219 218 215 211 210 210 211 212 215 218 222 226 228 231 233 235 236 236 237 238 239 241 243 245 247 247 248 249 251 254 257 260 265 270 270 266 268 275 273 266 259 256 254 252 250 249 246 243 242 242 242 240 237 231 229 233 235 237 242 252 262 268 273 282 292 306 319 326 329 331 334 337 340 342 342 344
204 208 216 223 223 219 216 218 218 217 216 214 212 212 214 216 217 219 221 225 229 232 234 236 237 237 237 239 241 242 242 244 247 248 247 248 249 251 255 258 261 267 267 261 258 267 273 268 260 256 255 254 252 250 249 247 245 245 246 246 246 244 237 232 232 233 234 239 248 255 261 266 274 287 302 316 322 325 328 331 334 337 339 339 340
204 211 218 221 219 217 218 217 216 215 214 212 212 214 217 219 221 224 226 230 233 236 239 241 240 238 237 236 237 242 245 245 247 249 250 251 253 256 258 259 262 265 261 253 255 265 268 263 258 256 255 254 252 251 250 249 248 249 251 253 253 252 248 245 242 238 234 236 243 249 255 261 270 285 300 312 319 321 325 328 331 334 335 337 339
203 210 211 210 209 213 216 217 216 215 214 213 215 217 219 222 225 228 231 234 237 239 240 242 240 238 235 230 231 239 245 244 244 246 248 254 260 261 258 257 260 261 254 250 258 264 262 259 257 255 254 254 252 250 249 248 247 248 250 249 246 243 243 243 240 235 231 232 237 243 250 257 268 283 298 309 315 318 322 325 328 331 334 337 339
203 208 208 205 205 205 207 212 215 215 216 217 218 219 221 224 227 231 234 237 239 239 238 238 237 235 235 235 234 236 238 239 239 240 245 254 261 259 254 258 261 256 249 250 261 264 261 258 255 253 253 252 249 246 246 246 245 245 246 244 238 235 235 235 231 227 227 230 234 239 245 254 266 282 296 306 312 316 319 323 326 330 333 337 339
206 207 205 203 203 200 197 198 202 206 208 211 214 216 219 222 226 231 234 234 236 236 234 233 233 232 237 241 236 229 230 234 236 238 244 251 254 251 254 260 259 251 246 252 262 266 264 260 254 252 252 250 248 247 245 242 241 242 242 238 233 231 231 227 223 223 226 228 231 236 243 253 267 281 293 303 310 314 317 322 325 329 333 336 338
212 209 202 200 200 198 193 189 189 193 198 202 206 211 214 218 224 229 232 233 234 232 229 231 235 238 245 247 233 222 226 232 235 238 244 247 250 253 257 259 255 250 249 253 262 267 266 261 256 254 253 251 250 249 246 242 241 242 240 237 232 227 222 219 219 221 224 226 229 233 241 253 267 280 291 301 308 312 317 321 324 328 332 334 337
209 206 201 198 195 191 191 190 190 194 198 201 206 210 215 221 226 231 235 239 238 231 225 227 234 242 249 247 230 220 224 231 236 241 246 249 254 257 255 253 251 250 252 257 265 269 267 262 258 255 253 252 250 247 245 244 243 240 239 239 235 224 215 214 217 219 222 224 226 232 240 253 267 279 290 300 307 313 317 320 322 326 330 333 336
204 203 201 198 194 192 196 197 198 201 204 206 209 213 218 224 230 235 240 243 243 238 232 231 236 242 245 241 230 223 226 233 239 244 248 252 254 253 250 248 248 250 256 263 267 266 263 261 259 256 254 252 249 245 243 243 243 240 239 239 236 227 216 214 216 218 221 223 226 232 241 253 265 277 288 298 306 312 315 318 321 325 328 331 335
205 205 205 202 198 199 202 203 205 207 209 211 212 213 217 224 229 235 240 243 245 246 244 242 241 240 238 237 235 232 232 237 241 244 249 251 250 247 247 246 246 252 260 263 262 259 257 257 257 256 254 250 246 244 242 242 242 240 238 238 236 230 222 217 217 218 221 223 227 233 242 252 264 275 286 296 305 311 314 317 320 322 325 330 336
208 208 208 205 203 204 206 208 212 215 217 216 213 212 218 225 229 233 237 242 247 250 250 248 245 241 236 234 237 240 242 243 244 246 252 252 246 244 248 250 251 255 258 258 259 259 258 257 255 254 253 249 245 243 242 242 241 239 237 237 235 231 226 220 219 220 221 224 229 235 242 251 262 273 284 294 303 310 314 317 319 320 324 330 336
208 207 208 208 209 211 213 216 220 222 222 218 215 217 225 230 232 235 238 244 250 253 252 251 249 246 240 233 234 239 243 245 247 250 256 256 247 244 250 255 256 256 255 254 255 256 257 257 255 253 252 249 245 244 243 242 240 238 238 237 233 230 228 223 220 221 222 225 230 236 243 251 261 272 283 293 302 309 314 317 318 321 324 329 335
205 207 209 212 214 215 218 221 223 224 224 221 221 226 232 233 235 237 240 245 251 254 254 254 252 250 245 239 237 240 244 248 251 252 255 256 249 244 247 251 252 251 248 249 250 251 252 253 252 250 250 247 245 244 241 239 237 237 237 235 232 233 231 225 222 221 222 226 232 237 243 252 261 272 283 293 301 308 314 316 318 319 322 327 334
208 211 215 220 222 222 224 225 223 222 224 226 228 232 235 235 237 238 239 244 250 253 257 259 257 254 248 243 242 241 242 246 250 251 253 254 247 242 244 248 249 249 249 252 256 256 255 254 252 249 245 242 240 237 234 234 236 236 234 232 234 237 234 228 224 223 223 228 233 238 245 252 262 272 283 291 299 305 310 313 316 318 320 324 331
217 221 225 230 230 229 229 228 225 224 226 229 232 234 236 237 238 239 240 243 248 253 259 262 262 259 252 245 244 245 245 247 250 252 252 250 244 242 246 249 251 254 258 261 262 261 259 257 255 251 247 243 240 236 234 236 238 235 232 231 235 237 232 228 226 225 226 230 236 241 247 253 261 271 280 288 295 300 304 309 312 315 317 321 327
Height
3153 3154 3155 3155 3156 3157 3157 3158 3158 3159 3159 3159 3159 3160 3161 3162 3164 3166 3169 3171 3171 3172 3174 3175 3175 3176 3176 3177 3177 3177 3178 3178 3178 3178 3179 3179 3179 3180 3181 3182 3182 3183 3183 3184 3184 3185 3185 3185 3185 3184 3184 3184 3184 3184 3184 3184 3184 3183 3183 3183 3183 3182 3181 3181 3180 3179 3178 3176 3175 3174 3173 3172 3171 3170 3170 3169 3167 3166 3165 3163 3162 3161 3159 3158 3156
3150 3151 3152 3153 3154 3154 3155 3156 3157 3157 3157 3157 3158 3158 3160 3162 3163 3165 3168 3170 3170 3171 3173 3174 3174 3174 3175 3175 3175 3175 3175 3176 3176 3177 3178 3177 3177 3178 3180 3181 3181 3182 3182 3183 3183 3184 3184 3184 3184 3183 3183 3183 3183 3183 3183 3183 3183 3182 3182 3182 3182 3181 3180 3179 3178 3177 3176 3175 3174 3173 3172 3171 3170 3169 3168 3167 3165 3164 3163 3162 3160 3159 3157 3156 3154
3147 3148 3149 3151 3151 3152 3152 3154 3155 3155 3155 3155 3155 3157 3159 3160 3161 3163 3166 3167 3168 3170 3171 3172 3173 3173 3173 3174 3174 3173 3173 3174 3174 3175 3176 3176 3175 3177 3179 3180 3180 3181 3181 3182 3182 3182 3183 3182 3182 3182 3182 3182 3182 3182 3182 3182 3182 3181 3181 3181 3180 3180 3179 3178 3177 3175 3174 3173 3172 3171 3170 3169 3168 3167 3166 3165 3164 3163 3161 3160 3159 3157 3155 3154 3152
3145 3146 3147 3148 3149 3149 3150 3152 3153 3153 3153 3153 3153 3156 3158 3158 3158 3161 3164 3166 3167 3169 3170 3170 3170 3170 3171 3172 3172 3171 3172 3172 3172 3172 3174 3173 3174 3176 3178 3178 3179 3180 3180 3181 3181 3181 3181 3181 3181 3181 3181 3181 3181 3181 3181 3181 3181 3180 3180 3179 3179 3178 3177 3176 3175 3174 3173 3172 3171 3170 3168 3167 3166 3165 3164 3164 3163 3161 3160 3158 3157 3155 3153 3152 3150
3142 3143 3144 3145 3146 3147 3148 3150 3151 3151 3150 3150 3153 3157 3156 3154 3156 3159 3162 3164 3166 3167 3167 3167 3167 3168 3169 3170 3171 3170 3170 3170 3171 3171 3171 3171 3173 3175 3176 3177 3178 3178 3179 3180 3180 3180 3180 3180 3180 3180 3180 3180 3180 3180 3180 3180 3180 3179 3179 3178 3177 3176 3175 3174 3173 3172 3172 3171 3170 3169 3168 3166 3165 3164 3163 3162 3161 3160 3159 3157 3155 3154 3152 3150 3149
3139 3140 3141 3143 3143 3145 3146 3148 3149 3149 3148 3149 3154 3155 3153 3152 3153 3155 3159 3162 3164 3164 3164 3164 3166 3167 3168 3168 3169 3170 3169 3169 3170 3171 3170 3171 3173 3174 3175 3176 3176 3177 3178 3178 3179 3179 3179 3179 3179 3179 3180 3180 3180 3180 3179 3179 3179 3178 3177 3176 3175 3174 3173 3172 3171 3170 3170 3169 3168 3168 3167 3165 3164 3163 3162 3161 3160 3159 3157 3155 3154 3152 3151 3149 3147
3137 3137 3139 3140 3141 3143 3144 3145 3146 3146 3146 3148 3152 3152 3150 3150 3150 3152 3157 3160 3161 3161 3161 3163 3164 3165 3166 3166 3167 3168 3168 3168 3169 3170 3170 3172 3173 3173 3173 3174 3175 3176 3177 3177 3177 3177 3178 3178 3178 3179 3179 3179 3179 3178 3178 3178 3177 3176 3175 3174 3173 3172 3171 3170 3169 3169 3168 3167 3167 3166 3165 3164 3163 3162 3161 3159 3158 3157 3155 3154 3152 3150 3149 3147 3145
3134 3135 3137 3138 3139 3141 3142 3143 3143 3144 3144 3147 3150 3148 3147 3148 3148 3151 3155 3158 3159 3159 3160 3162 3162 3163 3163 3164 3164 3165 3166 3167 3168 3169 3170 3170 3171 3171 3172 3173 3174 3175 3175 3176 3176 3176 3177 3177 3177 3177 3177 3177 3177 3177 3177 3176 3175 3175 3174 3173 3172 3171 3170 3169 3168 3167 3167 3166 3165 3165 3164 3163 3162 3161 3159 3158 3156 3155 3154 3152 3150 3148 3147 3145 3144
3132 3133 3135 3136 3138 3139 3140 3141 3141 3142 3143 3145 3148 3145 3144 3146 3147 3148 3152 3155 3157 3158 3159 3160 3161 3161 3162 3162 3163 3163 3164 3165 3166 3167 3168 3168 3169 3170 3171 3172 3173 3173 3174 3174 3175 3175 3176 3176 3176 3176 3176 3176 3176 3175 3175 3174 3174 3173 3172 3171 3170 3170 3169 3168 3167 3167 3166 3165 3164 3164 3163 3162 3161 3159 3158 3156 3155 3153 3151 3150 3148 3147 3145 3144 3142
3130 3131 3132 3134 3136 3137 3137 3138 3139 3140 3141 3143 3145 3144 3143 3144 3146 3146 3149 3152 3155 3156 3158 3158 3159 3159 3160 3161 3162 3162 3163 3163 3164 3165 3166 3167 3168 3169 3170 3170 3171 3172 3172 3173 3173 3174 3174 3174 3175 3175 3174 3174 3174 3173 3173 3172 3172 3171 3170 3170 3169 3169 3168 3167 3166 3166 3165 3164 3163 3163 3162 3160 3159 3158 3156 3155 3153 3151 3149 3148 3146 3145 3143 3142 3140
3128 3129 3130 3132 3133 3134 3135 3136 3137 3138 3139 3141 3143 3143 3143 3144 3145 3146 3147 3150 3153 3155 3156 3156 3157 3158 3159 3160 3160 3161 3162 3162 3162 3163 3165 3166 3167 3168 3168 3169 3170 3170 3171 3171 3172 3172 3173 3173 3173 3173 3173 3172 3172 3172 3171 3171 3170 3169 3169 3168 3168 3167 3166 3166 3165 3165 3164 3163 3162 3161 3160 3159 3158 3157 3155 3154 3152 3151 3149 3147 3145 3144 3142 3141 3139
3125 3127 3127 3129 3130 3131 3132 3134 3135 3136 3137 3139 3141 3142 3142 3143 3144 3145 3147 3149 3152 3153 3154 3154 3155 3157 3158 3159 3159 3160 3160 3160 3161 3162 3164 3165 3165 3166 3167 3168 3168 3169 3169 3170 3170 3171 3171 3171 3171 3171 3171 3170 3170 3170 3169 3169 3168 3168 3167 3166 3166 3165 3165 3165 3164 3163 3162 3162 3161 3160 3159 3158 3157 3155 3154 3153 3151 3150 3148 3146 3145 3143 3141 3140 3138
3123 3124 3124 3125 3127 3129 3131 3132 3133 3134 3135 3137 3138 3140 3141 3142 3143 3144 3146 3148 3150 3151 3152 3152 3153 3155 3156 3157 3158 3158 3158 3159 3160 3161 3163 3163 3164 3165 3165 3166 3167 3167 3168 3168 3169 3169 3170 3170 3169 3169 3169 3168 3168 3168 3167 3167 3166 3166 3165 3165 3164 3164 3163 3163 3162 3162 3161 3160 3159 3158 3157 3156 3155 3154 3153 3152 3150 3149 3148 3146 3144 3142 3140 3138 3137
3119 3120 3121 3123 3125 3127 3128 3130 3131 3131 3133 3135 3136 3138 3140 3141 3142 3143 3144 3146 3148 3149 3150 3150 3151 3152 3153 3154 3156 3157 3157 3158 3159 3160 3161 3162 3162 3163 3164 3165 3165 3166 3166 3167 3167 3167 3168 3167 3167 3167 3167 3166 3166 3166 3165 3165 3164 3164 3163 3163 3163 3162 3162 3161 3161 3160 3159 3159 3158 3157 3156 3155 3154 3153 3152 3151 3150 3148 3147 3145 3143 3141 3139 3137 3136
3115 3116 3117 3120 3122 3124 3125 3127 3128 3129 3130 3132 3134 3136 3137 3139 3140 3141 3143 3145 3146 3147 3148 3149 3150 3151 3151 3153 3154 3156 3157 3158 3159 3159 3160 3161 3161 3162 3163 3163 3164 3164 3165 3165 3165 3166 3166 3165 3165 3165 3165 3165 3165 3164 3163 3163 3162 3162 3162 3161 3161 3161 3160 3160 3159 3158 3158 3157 3156 3155 3154 3153 3152 3151 3151 3150 3148 3147 3145 3144 3141 3139 3138 3136 3135
3111 3112 3115 3118 3119 3120 3122 3124 3126 3127 3128 3130 3132 3133 3135 3136 3138 3140 3142 3145 3146 3146 3147 3148 3148 3149 3150 3151 3153 3154 3155 3156 3157 3158 3159 3160 3160 3161 3161 3162 3162 3163 3163 3163 3164 3164 3164 3164 3163 3163 3163 3163 3163 3162 3161 3161 3161 3160 3160 3160 3160 3159 3159 3158 3158 3157 3156 3156 3155 3154 3153 3152 3151 3150 3149 3148 3147 3146 3144 3142 3141 3139 3137 3136 3134
3108 3110 3112 3114 3116 3117 3119 3121 3123 3125 3126 3128 3129 3130 3132 3134 3137 3139 3140 3142 3145 3145 3146 3147 3147 3148 3149 3150 3151 3152 3153 3155 3156 3157 3158 3158 3159 3159 3160 3160 3160 3161 3161 3162 3162 3162 3162 3162 3162 3162 3161 3161 3161 3160 3160 3159 3159 3159 3159 3158 3158 3158 3157 3157 3156 3156 3155 3154 3154 3153 3152 3151 3150 3149 3148 3147 3146 3144 3142 3141 3139 3138 3137 3135 3133
3105 3107 3109 3110 3112 3114 3116 3118 3121 3122 3124 3125 3127 3128 3129 3132 3135 3137 3138 3140 3143 3144 3144 3145 3146 3147 3147 3148 3149 3150 3152 3153 3155 3156 3156 3157 3157 3157 3158 3158 3159 3159 3160 3160 3160 3160 3160 3160 3160 3160 3159 3159 3159 3158 3158 3158 3158 3157 3157 3157 3157 3156 3156 3155 3155 3154 3154 3153 3152 3151 3150 3150 3149 3148 3147 3145 3144 3142 3141 3140 3138 3137 3136 3134 3132
3102 3104 3105 3106 3109 3111 3113 3116 3118 3120 3121 3123 3124 3125 3126 3129 3132 3134 3136 3138 3140 3141 3142 3143 3144 3145 3146 3147 3148 3149 3150 3152 3153 3154 3155 3155 3155 3156 3156 3157 3157 3158 3158 3158 3158 3158 3158 3158 3158 3158 3157 3157 3157 3157 3156 3156 3156 3156 3156 3156 3155 3155 3154 3154 3153 3153 3152 3151 3151 3150 3149 3148 3147 3146 3145 3144 3142 3141 3140 3139 3137 3136 3134 3133 3131
3099 3100 3102 3104 3106 3108 3110 3113 3115 3117 3119 3120 3121 3122 3124 3126 3128 3131 3134 3136 3138 3139 3140 3141 3142 3144 3144 3145 3146 3148 3149 3151 3152 3152 3153 3153 3154 3155 3155 3155 3156 3156 3156 3156 3156 3156 3156 3156 3156 3156 3156 3155 3155 3155 3155 3155 3155 3155 3154 3154 3154 3153 3153 3152 3152 3151 3150 3150 3149 3148 3148 3147 3146 3145 3143 3142 3141 3140 3139 3137 3136 3135 3133 3132 3130
3096 3097 3099 3101 3103 3105 3107 3110 3112 3114 3115 3117 3118 3119 3121 3123 3125 3129 3132 3134 3135 3137 3138 3138 3140 3141 3142 3144 3145 3146 3148 3149 3150 3151 3151 3152 3153 3153 3154 3154 3154 3154 3154 3155 3154 3155 3155 3155 3154 3154 3154 3154 3154 3154 3154 3154 3153 3153 3153 3153 3152 3152 3151 3151 3150 3150 3149 3148 3148 3147 3146 3145 3144 3143 3142 3141 3140 3138 3137 3136 3135 3133 3132 3130 3128
3092 3094 3096 3098 3100 3102 3104 3107 3109 3110 3112 3114 3116 3117 3118 3120 3123 3126 3129 3131 3133 3135 3136 3137 3138 3139 3141 3142 3143 3144 3146 3147 3148 3149 3150 3151 3151 3152 3152 3152 3153 3153 3153 3153 3153 3153 3153 3153 3153 3152 3152 3152 3152 3152 3152 3152 3151 3151 3151 3151 3151 3150 3150 3149 3149 3148 3147 3147 3146 3145 3144 3144 3143 3141 3140 3139 3138 3137 3135 3134 3133 3132 3130 3129 3127
3089 3091 3093 3096 3097 3099 3101 3103 3105 3107 3109 3111 3113 3114 3115 3118 3121 3124 3126 3129 3131 3132 3134 3135 3136 3138 3139 3140 3141 3143 3144 3146 3147 3147 3148 3149 3150 3150 3150 3151 3151 3151 3151 3151 3151 3151 3151 3151 3151 3151 3150 3151 3151 3150 3150 3150 3150 3150 3149 3149 3149 3149 3148 3148 3147 3146 3146 3145 3144 3144 3143 3142 3141 3140 3139 3137 3136 3135 3134 3133 3131 3130 3128 3127 3125
3086 3088 3090 3092 3094 3096 3098 3100 3102 3105 3107 3109 3111 3112 3113 3116 3119 3121 3123 3126 3128 3130 3132 3133 3134 3136 3137 3138 3139 3141 3142 3144 3145 3145 3146 3147 3148 3148 3148 3149 3149 3149 3149 3149 3149 3149 3149 3149 3149 3149 3149 3149 3149 3149 3149 3148 3148 3148 3148 3148 3148 3147 3147 3146 3145 3145 3144 3143 3142 3142 3141 3141 3140 3138 3137 3136 3135 3133 3132 3131 3130 3128 3126 3125 3123
3083 3085 3087 3089 3091 3093 3095 3098 3100 3102 3105 3107 3108 3109 3110 3114 3116 3118 3121 3123 3125 3127 3129 3130 3132 3133 3134 3136 3137 3139 3140 3141 3142 3143 3144 3145 3146 3146 3146 3147 3147 3147 3147 3147 3147 3147 3147 3147 3147 3147 3147 3147 3147 3147 3147 3147 3146 3146 3146 3146 3146 3146 3145 3144 3144 3143 3142 3141 3141 3140 3140 3139 3138 3137 3136 3134 3133 3132 3131 3130 3128 3127 3125 3123 3121
3080 3082 3084 3086 3089 3091 3093 3096 3098 3100 3102 3104 3105 3106 3108 3111 3113 3115 3118 3120 3122 3124 3125 3127 3129 3130 3132 3133 3135 3136 3138 3139 3140 3141 3142 3143 3144 3144 3144 3145 3145 3145 3145 3145 3145 3145 3145 3145 3145 3145 3145 3145 3145 3145 3145 3145 3145 3144 3144 3144 3144 3144 3143 3142 3142 3141 3140 3139 3139 3138 3138 3137 3137 3135 3134 3133 3132 3131 3130 3129 3127 3126 3124 3122 3120
3077 3079 3082 3084 3087 3089 3091 3093 3095 3097 3099 3101 3102 3104 3106 3108 3111 3113 3115 3117 3119 3121 3123 3125 3126 3128 3130 3131 3133 3134 3136 3137 3138 3139 3140 3141 3142 3142 3142 3143 3143 3143 3143 3143 3143 3143 3143 3143 3143 3143 3143 3143 3143 3143 3143 3143 3143 3142 3142 3142 3142 3142 3141 3141 3140 3139 3138 3138 3137 3137 3136 3136 3135 3134 3133 3132 3131 3130 3129 3128 3126 3125 3123 3121 3119
3075 3077 3080 3082 3085 3087 3089 3091 3093 3094 3096 3098 3099 3101 3104 3106 3108 3110 3112 3114 3116 3118 3120 3122 3124 3126 3127 3129 3130 3132 3133 3135 3136 3137 3138 3139 3139 3140 3140 3141 3141 3141 3141 3141 3141 3141 3141 3141 3141 3141 3141 3141 3141 3141 3141 3141 3141 3140 3140 3140 3140 3140 3140 3139 3138 3137 3136 3136 3135 3135 3135 3134 3133 3133 3132 3131 3130 3129 3128 3127 3125 3124 3122 3121 3119
3073 3076 3078 3080 3083 3085 3087 3089 3090 3091 3093 3094 3096 3098 3101 3103 3105 3108 3110 3112 3114 3116 3118 3120 3122 3123 3125 3127 3128 3129 3131 3132 3133 3134 3135 3136 3137 3138 3138 3139 3139 3139 3139 3139 3139 3139 3139 3139 3139 3139 3139 3139 3139 3139 3139 3139 3139 3138 3138 3138 3138 3138 3138 3137 3136 3135 3135 3134 3134 3134 3133 3133 3132 3132 3131 3130 3129 3128 3127 3126 3125 3123 3121 3119 3117
3071 3074 3076 3078 3081 3083 3085 3086 3088 3089 3090 3091 3093 3095 3098 3100 3103 3105 3107 3110 3112 3114 3116 3117 3119 3121 3122 3124 3125 3127 3128 3129 3130 3131 3133 3134 3135 3135 3136 3136 3137 3137 3137 3137 3137 3137 3137 3137 3137 3137 3137 3137 3137 3137 3137 3137 3137 3137 3136 3136 3136 3136 3136 3135 3134 3134 3133 3132 3132 3132 3132 3131 3131 3131 3130 3129 3128 3127 3126 3125 3124 3122 3120 3118 3116
3069 3072 3074 3076 3079 3081 3082 3084 3085 3086 3088 3089 3091 3093 3095 3098 3100 3102 3105 3107 3109 3111 3113 3115 3116 3118 3120 3121 3123 3124 3125 3126 3128 3129 3130 3131 3132 3133 3133 3134 3134 3135 3135 3135 3135 3135 3135 3134 3134 3134 3134 3134 3134 3135 3135 3135 3135 3135 3134 3134 3134 3134 3134 3133 3132 3132 3131 3131 3130 3130 3130 3130 3130 3129 3129 3128 3127 3126 3125 3124 3123 3121 3119 3117 3115
3067 3069 3072 3074 3076 3078 3080 3081 3083 3084 3085 3086 3088 3090 3092 3095 3097 3100 3103 3105 3107 3109 3110 3112 3114 3116 3117 3119 3120 3121 3122 3124 3125 3126 3127 3128 3129 3130 3131 3131 3132 3132 3132 3132 3132 3132 3132 3132 3132 3132 3132 3132 3132 3132 3133 3133 3133 3132 3132 3132 3132 3132 3132 3131 3131 3130 3129 3129 3128 3128 3128 3128 3128 3128 3127 3126 3125 3124 3123 3122 3121 3119 3117 3115 3113
3065 3067 3070 3073 3075 3077 3078 3079 3080 3081 3082 3084 3086 3088 3091 3093 3096 3098 3100 3102 3104 3106 3108 3110 3112 3113 3115 3116 3117 3118 3120 3121 3122 3123 3124 3125 3126 3127 3128 3128 3129 3129 3130 3130 3130 3130 3130 3130 3129 3129 3129 3129 3130 3130 3130 3130 3130 3130 3130 3129 3130 3130 3130 3129 3129 3128 3128 3127 3127 3127 3127 3127 3126 3126 3125 3124 3123 3122 3121 3120 3119 3117 3116 3114 3112
3063 3066 3068 3070 3073 3074 3075 3076 3077 3079 3080 3082 3084 3086 3089 3091 3093 3096 3098 3100 3102 3103 3105 3107 3109 3111 3112 3113 3114 3116 3117 3118 3119 3120 3121 3122 3123 3124 3125 3126 3126 3127 3127 3127 3127 3127 3127 3127 3127 3127 3127 3127 3127 3127 3128 3128 3128 3128 3127 3127 3127 3127 3128 3128 3127 3127 3127 3126 3126 3126 3126 3125 3125 3125 3124 3123 3122 3121 3120 3119 3117 3115 3114 3112 3110
3062 3064 3066 3068 3070 3072 3073 3074 3075 3076 3078 3079 3081 3083 3086 3088 3091 3093 3095 3097 3099 3101 3103 3105 3106 3108 3109 3110 3112 3113 3114 3115 3116 3117 3118 3119 3120 3121 3122 3123 3124 3124 3124 3125 3125 3125 3125 3125 3124 3124 3124 3125 3125 3125 3125 3125 3125 3125 3125 3125 3125 3125 3125 3126 3126 3126 3125 3125 3125 3125 3124 3124 3124 3123 3123 3122 3121 3120 3119 3118 3116 3115 3113 3111 3109
3061 3063 3064 3066 3068 3069 3071 3072 3072 3074 3075 3077 3079 3081 3084 3086 3088 3090 3092 3094 3096 3098 3100 3102 3104 3105 3106 3108 3109 3110 3111 3112 3113 3114 3115 3116 3118 3119 3119 3120 3121 3121 3121 3122 3122 3122 3122 3122 3122 3122 3122 3122 3122 3122 3122 3123 3123 3123 3123 3123 3123 3123 3123 3124 3124 3124 3124 3123 3123 3123 3123 3123 3123 3122 3122 3121 3120 3119 3118 3117 3116 3114 3112 3110 3109
3059 3061 3063 3064 3066 3067 3068 3069 3071 3072 3074 3076 3078 3080 3082 3084 3086 3088 3090 3092 3094 3096 3098 3100 3101 3102 3104 3105 3106 3107 3108 3109 3110 3111 3112 3113 3114 3115 3116 3117 3118 3118 3118 3119 3119 3119 3119 3119 3119 3119 3119 3119 3119 3119 3120 3120 3120 3121 3121 3121 3121 3121 3122 3122 3122 3122 3122 3122 3122 3122 3122 3122 3122 3121 3121 3120 3119 3118 3117 3116 3115 3113 3112 3110 3108
3057 3059 3061 3062 3063 3065 3066 3068 3069 3070 3072 3074 3077 3078 3080 3082 3084 3086 3088 3090 3092 3094 3095 3097 3098 3099 3101 3102 3103 3104 3105 3106 3107 3108 3109 3110 3111 3112 3113 3114 3115 3115 3115 3115 3115 3115 3115 3115 3115 3116 3116 3117 3117 3117 3117 3118 3118 3119 3119 3120 3120 3121 3121 3121 3121 3121 3121 3121 3121 3121 3121 3121 3121 3120 3120 3119 3118 3118 3117 3115 3114 3113 3111 3109 3108
3055 3057 3059 3061 3062 3064 3065 3066 3067 3069 3071 3073 3075 3077 3079 3081 3083 3085 3086 3088 3090 3091 3093 3094 3096 3097 3098 3099 3100 3101 3102 3103 3104 3105 3106 3107 3108 3109 3110 3111 3111 3111 3112 3112 3112 3112 3112 3112 3113 3113 3114 3114 3114 3115 3116 3116 3117 3117 3118 3119 3120 3120 3121 3121 3120 3120 3120 3120 3120 3120 3120 3120 3119 3119 3119 3118 3117 3117 3116 3115 3113 3112 3110 3109 3107
3053 3056 3058 3060 3061 3062 3063 3065 3066 3068 3070 3072 3073 3075 3077 3079 3081 3083 3084 3086 3088 3089 3091 3092 3092 3093 3094 3096 3097 3098 3099 3100 3101 3102 3102 3103 3105 3106 3107 3107 3108 3108 3108 3109 3109 3109 3109 3110 3110 3111 3111 3112 3112 3113 3114 3114 3115 3116 3117 3117 3117 3118 3118 3118 3118 3118 3118 3118 3118 3118 3118 3118 3118 3118 3117 3117 3116 3116 3115 3114 3112 3111 3109 3107 3105
3053 3055 3057 3059 3060 3061 3062 3064 3066 3067 3069 3071 3072 3074 3076 3078 3079 3080 3082 3084 3085 3087 3087 3088 3089 3090 3091 3093 3094 3095 3096 3097 3098 3098 3099 3100 3101 3102 3103 3104 3104 3105 3105 3106 3106 3106 3107 3107 3108 3108 3109 3109 3110 3111 3111 3112 3113 3114 3114 3115 3115 3115 3115 3116 3116 3116 3116 3117 3117 3117 3117 3117 3117 3116 3116 3115 3115 3114 3113 3112 3111 3109 3108 3106 3104
3052 3055 3056 3057 3058 3060 3061 3062 3064 3066 3068 3069 3071 3073 3074 3076 3077 3079 3080 3081 3082 3083 3084 3084 3086 3087 3088 3089 3090 3091 3093 3094 3094 3095 3096 3097 3098 3099 3100 3100 3101 3102 3102 3103 3103 3104 3104 3104 3105 3105 3106 3107 3107 3108 3109 3110 3110 3111 3111 3112 3112 3112 3112 3113 3114 3114 3115 3115 3115 3115 3115 3115 3115 3115 3115 3114 3114 3113 3112 3111 3109 3108 3106 3104 3103
3051 3053 3055 3056 3057 3059 3060 3061 3063 3064 3066 3068 3070 3071 3073 3074 3075 3077 3078 3078 3079 3080 3081 3082 3082 3084 3085 3086 3087 3088 3090 3090 3091 3092 3093 3094 3095 3096 3096 3097 3098 3099 3100 3100 3101 3101 3102 3102 3102 3103 3104 3104 3105 3105 3106 3107 3108 3109 3109 3109 3110 3109 3110 3111 3112 3112 3113 3113 3113 3113 3114 3114 3114 3114 3113 3113 3112 3111 3110 3109 3108 3106 3105 3103 3101
3050 3052 3054 3055 3056 3058 3059 3060 3062 3063 3065 3066 3068 3069 3071 3072 3073 3074 3075 3076 3076 3077 3078 3079 3080 3081 3082 3083 3084 3085 3086 3087 3088 3089 3090 3091 3092 3093 3093 3094 3095 3096 3097 3098 3098 3099 3099 3099 3100 3100 3101 3101 3102 3103 3104 3104 3105 3106 3106 3107 3107 3107 3107 3108 3109 3110 3111 3111 3111 3112 3112 3112 3112 3112 3112 3111 3111 3110 3109 3108 3106 3105 3103 3102 3100
3049 3051 3052 3054 3055 3057 3058 3059 3060 3062 3063 3065 3066 3068 3069 3070 3071 3072 3073 3074 3074 3075 3076 3077 3078 3079 3080 3080 3081 3082 3084 3085 3086 3087 3088 3089 3090 3090 3090 3091 3092 3093 3094 3095 3096 3096 3096 3097 3097 3097 3098 3098 3099 3100 3101 3102 3103 3103 3104 3104 3105 3105 3105 3106 3107 3108 3108 3109 3109 3110 3110 3110 3110 3110 3110 3110 3109 3108 3107 3106 3105 3103 3102 3100 3098
3047 3048 3050 3052 3054 3055 3056 3058 3059 3060 3061 3063 3064 3066 3067 3068 3069 3070 3071 3071 3072 3072 3073 3074 3075 3076 3077 3078 3078 3079 3081 3082 3083 3084 3085 3086 3086 3087 3088 3088 3090 3091 3091 3092 3092 3093 3093 3093 3094 3094 3095 3095 3096 3097 3099 3100 3100 3101 3101 3102 3103 3104 3104 3104 3105 3106 3106 3107 3107 3108 3108 3108 3108 3109 3108 3108 3107 3106 3105 3104 3103 3102 3100 3099 3097
3046 3047 3049 3051 3052 3054 3055 3056 3057 3058 3059 3060 3062 3064 3065 3065 3066 3067 3068 3069 3069 3070 3071 3071 3072 3073 3074 3075 3076 3077 3078 3079 3080 3081 3082 3083 3083 3084 3085 3086 3087 3088 3089 3089 3089 3090 3090 3090 3091 3091 3092 3092 3094 3095 3096 3097 3098 3098 3099 3100 3101 3102 3102 3102 3103 3103 3104 3105 3105 3106 3106 3106 3106 3106 3106 3106 3105 3104 3103 3102 3101 3100 3099 3097 3095
3044 3046 3048 3049 3051 3052 3053 3054 3055 3056 3057 3058 3060 3061 3062 3063 3064 3065 3065 3066 3066 3067 3068 3069 3069 3070 3071 3072 3073 3074 3075 3076 3077 3078 3079 3080 3081 3082 3083 3084 3084 3085 3086 3086 3086 3087 3087 3088 3088 3089 3089 3090 3091 3092 3094 3095 3096 3096 3097 3098 3098 3099 3100 3100 3100 3101 3101 3102 3103 3103 3104 3104 3104 3104 3104 3104 3103 3102 3101 3100 3099 3098 3097 3095 3093
3043 3044 3046 3047 3049 3050 3051 3053 3053 3054 3054 3056 3057 3058 3059 3060 3061 3062 3063 3063 3064 3064 3065 3066 3066 3067 3068 3069 3070 3071 3072 3073 3073 3074 3076 3077 3078 3079 3080 3081 3081 3081 3082 3083 3083 3084 3084 3085 3085 3086 3086 3088 3089 3090 3092 3093 3093 3094 3094 3095 3096 3097 3098 3098 3098 3098 3099 3099 3100 3101 3101 3102 3102 3102 3102 3101 3101 3100 3099 3098 3097 3096 3095 3094 3091
3042 3043 3045 3046 3047 3048 3049 3051 3051 3052 3052 3052 3054 3056 3057 3058 3058 3059 3060 3061 3061 3062 3062 3063 3064 3064 3065 3066 3067 3068 3069 3070 3071 3072 3073 3074 3075 3076 3076 3077 3078 3078 3079 3080 3080 3081 3081 3082 3082 3082 3083 3085 3086 3087 3088 3089 3090 3090 3091 3092 3094 3095 3095 3096 3096 3096 3096 3097 3098 3099 3099 3099 3099 3100 3099 3099 3098 3098 3097 3097 3096 3095 3093 3092 3090
3040 3041 3043 3044 3045 3046 3047 3048 3049 3049 3049 3050 3051 3053 3054 3055 3056 3057 3057 3058 3058 3059 3060 3060 3061 3061 3062 3063 3064 3065 3066 3067 3068 3068 3069 3070 3071 3072 3073 3074 3075 3076 3076 3077 3077 3078 3078 3078 3079 3079 3080 3081 3082 3083 3084 3085 3086 3087 3089 3090 3091 3092 3092 3093 3093 3094 3094 3095 3096 3097 3097 3097 3097 3097 3097 3097 3096 3096 3095 3095 3094 3093 3092 3090 3088